Location: Mat�lon
(46.2791°N, 7.1028°E)
Time: 17:26:05
(UTC+00:00)

USA 234 - Pass Details

Date: 18 September 2020
Orbit: 1102 x 1106 km, 123.0° (Epoch: 16 October)

Event Time Altitude Azimuth Distance (km) Brightness Sun altitude
Exits shadow 20:19:21 - 52° (NE) 3,094 5.5 -27.2°
Reaches altitude 10° 20:19:41 10° 52° (NE) 2,967 5.4 -27.3°
Maximum altitude 20:26:15 84° 326° (NW) 1,115 3.2 -28.2°
Drops below altitude 10° 20:32:48 10° 238° (WSW) 2,959 5.7 -29.1°
Sets 20:35:16 0° 238° (WSW) 3,915 6.4 -29.4°
